DW9005 Weather Reports


Display with metric or nautical units.
time (UTC)temp
F
wind
direction
speed
MPH
gust
MPH
rain 1hr
in
rain 24hr
in
rain mn
in
humidity
%
barometer
mb
20260901014558 80 0.0 0.0 0.00 0.00 0.00 87 1017.5
20260901013109 80 0.0 0.0 0.00 0.00 0.00 86 1017.5
20260901011557 81 0.0 0.0 0.00 0.00 0.00 85 1017.4
20260901010037 81 0.0 0.0 0.00 0.00 0.00 83 1017.2
20260901004536 82 0.0 0.0 0.00 0.00 0.00 81 1016.9
20260901003019 84 0.0 0.0 0.00 0.00 0.00 78 1016.8
20260901001518 85 0.0 0.0 0.00 0.00 0.00 75 1016.9
20260831234601 88 0.0 0.0 0.00 0.00 0.00 68 1016.9
20260831233041 90 0.0 0.0 0.00 0.00 0.00 64 1017.0
20260831231541 92 0.0 0.0 0.00 0.00 0.00 61 1016.9
20260831230023 91 0.0 0.0 0.00 0.00 0.00 60 1017.0
20260831224525 92 0.0 0.0 0.00 0.00 0.00 61 1017.1
20260831223005 91 0.0 0.0 0.00 0.00 0.00 63 1017.0
20260831221504 91 0.0 0.0 0.00 0.00 0.00 62 1017.1
20260831220046 92 0.0 0.0 0.00 0.00 0.00 59 1017.1
20260831214545 92 0.0 0.0 0.00 0.00 0.00 60 1017.3
20260831213027 92 0.0 0.0 0.00 0.00 0.00 60 1017.4
20260831211524 92 0.0 0.0 0.00 0.00 0.00 60 1017.6
20260831210004 92 0.0 0.0 0.00 0.00 0.00 62 1017.7
20260831204503 92 0.0 0.0 0.00 0.00 0.00 61 1017.7
20260831203110 92 0.0 0.0 0.00 0.00 0.00 63 1017.7
20260831201601 92 0.0 0.0 0.00 0.00 0.00 58 1017.8
20260831200134 92 0.0 0.0 0.00 0.00 0.00 61 1018.1
20260831194551 91 0.0 0.0 0.00 0.00 0.00 64 1018.3
20260831193045 91 0.0 0.0 0.00 0.00 0.00 62 1018.3
20260831191545 91 0.0 0.0 0.00 0.00 0.00 62 1018.6
20260831190043 90 0.0 0.0 0.00 0.00 0.00 67 1018.6
20260831184544 90 0.0 0.0 0.00 0.00 0.00 65 1018.8
20260831183018 89 0.0 0.0 0.00 0.00 0.00 65 1019.2
20260831181525 88 0.0 0.0 0.00 0.00 0.00 67 1019.3
20260831180108 88 0.0 0.0 0.00 0.00 0.00 67 1019.4
20260831174557 87 0.0 0.0 0.00 0.00 0.00 71 1019.6
20260831173039 87 0.0 0.0 0.00 0.00 0.00 72 1019.7
20260831171539 87 0.0 0.0 0.00 0.00 0.00 76 1019.8
20260831170027 87 0.0 0.0 0.00 0.00 0.00 72 1020.0
20260831164520 87 0.0 0.0 0.00 0.00 0.00 72 1020.1
20260831163002 88 0.0 0.0 0.00 0.00 0.00 71 1020.2
20260831161600 86 0.0 0.0 0.00 0.00 0.00 74 1020.4
20260831154542 87 0.0 0.0 0.00 0.00 0.00 73 1020.5
20260831153038 86 0.0 0.0 0.00 0.00 0.00 78 1020.6
20260831151519 85 0.0 0.0 0.00 0.00 0.00 78 1020.6
20260831150017 84 0.0 0.0 0.00 0.00 0.00 80 1020.5
20260831144502 83 0.0 0.0 0.00 0.00 0.00 83 1020.5
20260831143100 83 0.0 0.0 0.00 0.00 0.00 84 1020.5
20260831141607 81 0.0 0.0 0.00 0.00 0.00 86 1020.5
20260831140053 80 0.0 0.0 0.00 0.00 0.00 88 1020.5
20260831134551 79 0.0 0.0 0.00 0.00 0.00 91 1020.6
20260831133045 77 0.0 0.0 0.00 0.00 0.00 93 1020.6
20260831131542 76 0.0 0.0 0.00 0.00 0.00 94 1020.6
20260831130041 74 0.0 0.0 0.00 0.00 0.00 95 1020.7
20260831124520 73 0.0 0.0 0.00 0.00 0.00 95 1020.4
20260831123017 72 0.0 0.0 0.00 0.00 0.00 95 1020.3
20260831121558 72 0.0 0.0 0.00 0.00 0.00 95 1020.0
20260831120129 71 0.0 0.0 0.00 0.00 0.00 95 1019.7
20260831114541 71 0.0 0.0 0.00 0.00 0.00 95 1019.7
20260831113044 71 0.0 0.0 0.00 0.00 0.00 95 1019.4
20260831111518 71 0.0 0.0 0.00 0.00 0.00 95 1019.2
20260831110015 72 0.0 0.0 0.00 0.00 0.00 95 1019.1
20260831104605 72 0.0 0.0 0.00 0.00 0.00 95 1018.9
20260831103057 72 0.0 0.0 0.00 0.00 0.00 95 1019.0
20260831101540 72 0.0 0.0 0.00 0.00 0.00 95 1019.0
20260831100038 72 0.0 0.0 0.00 0.00 0.00 95 1018.8
20260831094520 72 0.0 0.0 0.00 0.00 0.00 95 1018.8
20260831093018 72 0.0 0.0 0.00 0.00 0.00 95 1018.7
20260831091606 72 0.0 0.0 0.00 0.00 0.00 95 1018.5
20260831090104 72 0.0 0.0 0.00 0.00 0.00 95 1018.4
20260831084553 73 0.0 0.0 0.00 0.00 0.00 95 1018.4
20260831083037 73 0.0 0.0 0.00 0.00 0.00 94 1018.1
20260831081522 73 0.0 0.0 0.00 0.00 0.00 94 1018.0
20260831080019 73 0.0 0.0 0.00 0.00 0.00 94 1018.1
20260831074559 74 0.0 0.0 0.00 0.00 0.00 94 1017.9
20260831073059 74 0.0 0.0 0.00 0.00 0.00 94 1018.0
20260831071539 74 0.0 0.0 0.00 0.00 0.00 94 1018.1
20260831070046 74 0.0 0.0 0.00 0.00 0.00 94 1018.0
20260831064521 74 0.0 0.0 0.00 0.00 0.00 94 1018.1
20260831063020 74 0.0 0.0 0.00 0.00 0.00 94 1018.1
20260831061503 74 0.0 0.0 0.00 0.00 0.00 94 1018.2
20260831060003 74 0.0 0.0 0.00 0.00 0.00 94 1018.2
20260831054546 74 0.0 0.0 0.00 0.00 0.00 94 1018.2
20260831053058 75 0.0 0.0 0.00 0.00 0.00 94 1018.2
20260831051534 75 0.0 0.0 0.00 0.00 0.00 93 1018.3
20260831050025 75 0.0 0.0 0.00 0.00 0.00 93 1018.4
20260831044509 75 0.0 0.0 0.00 0.00 0.00 93 1018.3
20260831043008 75 0.0 0.0 0.00 0.00 0.00 93 1018.4
20260831041550 76 0.0 0.0 0.00 0.00 0.00 93 1018.4
20260831040050 76 0.0 0.0 0.00 0.00 0.00 93 1018.3
20260831034531 76 0.0 0.0 0.00 0.00 0.00 92 1018.5
20260831033055 76 0.0 0.0 0.00 0.00 0.00 92 1018.4
20260831031515 77 0.0 0.0 0.00 0.00 0.00 92 1018.5
20260831030012 77 0.0 0.0 0.00 0.00 0.00 92 1018.2
20260831024600 77 0.0 0.0 0.00 0.00 0.00 91 1018.2
20260831023058 77 0.0 0.0 0.00 0.00 0.00 90 1018.3
20260831021558 78 0.0 0.0 0.00 0.00 0.00 90 1018.3
20260831020110 78 0.0 0.0 0.00 0.00 0.00 89 1018.0